TimeCET,TemperatureF,Dew PointF,Humidity,Sea Level PressureIn,VisibilityMPH,Wind Direction,Wind SpeedMPH,Gust SpeedMPH,PrecipitationIn,Events,Conditions,WindDirDegrees,DateUTC
12:20 AM,57.2,53.6,88,30.18,-9999.0,WNW,3.5,-,N/A,,Clear,290,2011-10-29 22:20:00
12:50 AM,59.0,53.6,82,30.18,-9999.0,NNW,6.9,-,N/A,,Clear,330,2011-10-29 22:50:00
1:20 AM,59.0,53.6,82,30.18,-9999.0,NNW,2.3,-,N/A,,Clear,340,2011-10-29 23:20:00
1:50 AM,57.2,51.8,82,30.18,-9999.0,NNW,3.5,-,N/A,,Clear,340,2011-10-29 23:50:00
2:00 AM,57,52,78,30.19,8,North,3.5,,,,,350,2011-10-30 00:00:00
2:20 AM,57.2,51.8,82,30.18,-9999.0,NNW,3.5,-,N/A,,Clear,330,2011-10-30 00:20:00
2:50 AM,57.2,51.8,82,30.18,-9999.0,North,2.3,-,N/A,,Clear,350,2011-10-30 00:50:00
2:20 AM,57.2,51.8,82,30.15,-9999.0,NNW,4.6,-,N/A,,Clear,330,2011-10-30 01:20:00
2:50 AM,57.2,51.8,82,30.15,-9999.0,NNW,3.5,-,N/A,,Clear,330,2011-10-30 01:50:00
3:20 AM,57.2,51.8,82,30.15,6.2,NNW,4.6,-,N/A,,Partly Cloudy,330,2011-10-30 02:20:00
3:50 AM,57.2,51.8,82,30.15,6.2,NW,5.8,-,N/A,,Partly Cloudy,310,2011-10-30 02:50:00
4:00 AM,57,51,74,30.16,9,NW,4.6,,,,Scattered Clouds,320,2011-10-30 03:00:00
4:20 AM,57.2,51.8,82,30.15,6.2,NNW,4.6,-,N/A,,Partly Cloudy,330,2011-10-30 03:20:00
4:50 AM,57.2,50.0,77,30.15,6.2,North,5.8,-,N/A,,Partly Cloudy,350,2011-10-30 03:50:00
5:20 AM,57.2,50.0,77,30.15,6.2,NNW,4.6,-,N/A,,Partly Cloudy,340,2011-10-30 04:20:00
5:50 AM,55.4,50.0,82,30.15,6.2,NNW,4.6,-,N/A,,Partly Cloudy,340,2011-10-30 04:50:00
6:20 AM,57.2,50.0,77,30.15,6.2,NW,6.9,-,N/A,,Partly Cloudy,320,2011-10-30 05:20:00
6:50 AM,57.2,51.8,82,30.15,6.2,NNW,4.6,-,N/A,,Partly Cloudy,340,2011-10-30 05:50:00
7:00 AM,,,,,12,Calm,Calm,,,,,,2011-10-30 06:00:00
7:20 AM,59.0,50.0,72,30.15,6.2,North,4.6,-,N/A,,Partly Cloudy,350,2011-10-30 06:20:00
7:50 AM,59.0,50.0,72,30.15,6.2,North,4.6,-,N/A,,Partly Cloudy,360,2011-10-30 06:50:00
8:20 AM,60.8,51.8,72,30.15,6.2,North,4.6,-,N/A,,Partly Cloudy,350,2011-10-30 07:20:00
8:50 AM,62.6,51.8,68,30.18,6.2,North,4.6,-,N/A,,Partly Cloudy,360,2011-10-30 07:50:00
9:20 AM,64.4,51.8,64,30.18,6.2,NNE,5.8,-,N/A,,Partly Cloudy,30,2011-10-30 08:20:00
9:50 AM,64.4,51.8,64,30.18,6.2,NNE,5.8,-,N/A,,Partly Cloudy,30,2011-10-30 08:50:00
10:00 AM,65,52,53,30.18,12,NNE,5.8,,,,Scattered Clouds,30,2011-10-30 09:00:00
10:20 AM,66.2,51.8,60,30.18,6.2,North,4.6,-,N/A,,Partly Cloudy,10,2011-10-30 09:20:00
10:50 AM,68.0,51.8,56,30.18,-9999.0,North,4.6,-,N/A,,Clear,350,2011-10-30 09:50:00
11:20 AM,69.8,51.8,53,30.15,-9999.0,Variable,4.6,-,N/A,,Clear,0,2011-10-30 10:20:00
11:50 AM,69.8,51.8,53,30.15,-9999.0,Variable,4.6,-,N/A,,Clear,0,2011-10-30 10:50:00
12:20 PM,69.8,51.8,53,30.15,-9999.0,NNE,4.6,-,N/A,,Clear,20,2011-10-30 11:20:00
12:50 PM,69.8,51.8,53,30.12,-9999.0,ENE,3.5,-,N/A,,Clear,70,2011-10-30 11:50:00
1:00 PM,70,52,42,30.14,12,NNE,4.6,,,,,20,2011-10-30 12:00:00
1:20 PM,69.8,50.0,49,30.12,6.2,North,5.8,-,N/A,,Partly Cloudy,350,2011-10-30 12:20:00
1:50 PM,69.8,51.8,53,30.12,6.2,NNE,3.5,-,N/A,,Partly Cloudy,30,2011-10-30 12:50:00
2:20 PM,69.8,51.8,53,30.12,6.2,Variable,3.5,-,N/A,,Partly Cloudy,0,2011-10-30 13:20:00
2:50 PM,69.8,53.6,56,30.12,6.2,SSE,3.5,-,N/A,,Partly Cloudy,160,2011-10-30 13:50:00
3:20 PM,68.0,51.8,56,30.12,6.2,SSW,4.6,-,N/A,,Partly Cloudy,200,2011-10-30 14:20:00
3:50 PM,68.0,53.6,60,30.12,6.2,South,4.6,-,N/A,,Partly Cloudy,190,2011-10-30 14:50:00
4:00 PM,68,53,47,30.12,12,South,2.3,,,,Mostly Cloudy,180,2011-10-30 15:00:00
4:20 PM,68.0,51.8,56,30.09,6.2,Variable,2.3,-,N/A,,Partly Cloudy,0,2011-10-30 15:20:00
4:50 PM,66.2,51.8,60,30.09,6.2,Variable,2.3,-,N/A,,Scattered Clouds,0,2011-10-30 15:50:00
5:20 PM,66.2,51.8,60,30.09,6.2,ENE,5.8,-,N/A,,Scattered Clouds,70,2011-10-30 16:20:00
5:50 PM,64.4,51.8,64,30.12,6.2,NE,4.6,-,N/A,,Scattered Clouds,40,2011-10-30 16:50:00
6:20 PM,64.4,51.8,64,30.12,6.2,NNE,4.6,-,N/A,,Mostly Cloudy,30,2011-10-30 17:20:00
6:50 PM,62.6,51.8,68,30.12,6.2,NE,5.8,-,N/A,,Mostly Cloudy,40,2011-10-30 17:50:00
7:00 PM,,,,,12,Calm,Calm,,,,Mostly Cloudy,,2011-10-30 18:00:00
7:20 PM,62.6,51.8,68,30.12,6.2,NE,5.8,-,N/A,,Mostly Cloudy,40,2011-10-30 18:20:00
7:50 PM,62.6,50.0,63,30.12,6.2,NNE,4.6,-,N/A,,Mostly Cloudy,30,2011-10-30 18:50:00
8:20 PM,62.6,51.8,68,30.12,6.2,Variable,2.3,-,N/A,,Mostly Cloudy,0,2011-10-30 19:20:00
8:50 PM,60.8,50.0,68,30.12,6.2,Variable,4.6,-,N/A,,Mostly Cloudy,0,2011-10-30 19:50:00
9:20 PM,60.8,50.0,68,30.12,6.2,NNE,6.9,-,N/A,,Mostly Cloudy,20,2011-10-30 20:20:00
9:50 PM,60.8,50.0,68,30.12,6.2,NE,4.6,-,N/A,,Mostly Cloudy,50,2011-10-30 20:50:00
10:00 PM,61,51,60,30.14,12,ENE,3.5,,,,Mostly Cloudy,60,2011-10-30 21:00:00
10:20 PM,60.8,50.0,68,30.12,6.2,Variable,2.3,-,N/A,,Mostly Cloudy,0,2011-10-30 21:20:00
10:50 PM,60.8,50.0,68,30.12,6.2,NNE,5.8,-,N/A,,Mostly Cloudy,30,2011-10-30 21:50:00